カタログに戻る

STARLINK-3919

運用中通信VLEO
NORAD 52580·PAYLOAD·🇺🇸 United States

打ち上げ May 13, 2022 から Vandenberg Space Force Base

Loading…

次のパス (今後24時間)

TLE

最新Source: CelesTrak SupGP

元期: Sep 15, 2026, 01:53 UTC

1 52580C 22051AW  26258.07895833  .00024779  00000+0  79694-3 0  2580
2 52580  53.1597 359.0685 0000970  91.9393 130.1855 15.31685276    16

AllMySatでSTARLINK-3919をリアルタイム追跡

Download on the App Store